• en Suisse
  • Liste des pays
  • À 7 jours
  • Température de l'eau
  • Carte satellitaire
  • Carte météo
  • Widgets météo
  • user-avatar
    Se connecter

    Météo par heure à Krasnyy Uryush

    Ce jour, 26 Septembre, Mercredi

    Heure Température Précipitation Vent Pression Humidité
    00:00 +13°C° 0 mm 3 m/s 746 mmHg 75%
    01:00 +13°C° 0 mm 3 m/s 746 mmHg 76%
    02:00 +13°C° 0 mm 4 m/s 746 mmHg 74%
    03:00 +13°C° 0 mm 4 m/s 746 mmHg 72%
    04:00 +12°C° 0 mm 4 m/s 746 mmHg 73%
    05:00 +12°C° 0.1 mm 5 m/s 746 mmHg 72%
    06:00 +13°C° 0.1 mm 5 m/s 746 mmHg 71%
    07:00 +13°C° 0.1 mm 6 m/s 746 mmHg 71%
    08:00 +13°C° 0 mm 6 m/s 747 mmHg 68%
    09:00 +14°C° 0 mm 6 m/s 747 mmHg 65%
    10:00 +15°C° 0 mm 6 m/s 747 mmHg 61%
    11:00 +15°C° 0.1 mm 6 m/s 747 mmHg 63%
    12:00 +15°C° 0.1 mm 6 m/s 747 mmHg 64%
    13:00 +15°C° 0.1 mm 5 m/s 748 mmHg 65%
    14:00 +14°C° 0.6 mm 5 m/s 748 mmHg 70%
    15:00 +13°C° 0.6 mm 4 m/s 748 mmHg 75%
    16:00 +12°C° 0.6 mm 4 m/s 748 mmHg 80%
    17:00 +12°C° 0.4 mm 3 m/s 748 mmHg 84%
    18:00 +11°C° 0.4 mm 3 m/s 748 mmHg 88%
    19:00 +11°C° 0.4 mm 3 m/s 748 mmHg 92%
    20:00 +11°C° 0.4 mm 3 m/s 748 mmHg 93%
    21:00 +12°C° 0.4 mm 2 m/s 748 mmHg 93%
    22:00 +10°C° 0.4 mm 2 m/s 748 mmHg 94%
    23:00 +10°C° 0.8 mm 2 m/s 748 mmHg 95%

    Demain, 27 Septembre, Jeudi

    Heure Température Précipitation Vent Pression Humidité
    00:00 +11°C° 0.8 mm 1 m/s 748 mmHg 95%
    01:00 +10°C° 0.8 mm 1 m/s 748 mmHg 95%
    02:00 +10°C° 0.9 mm 1 m/s 747 mmHg 95%
    03:00 +10°C° 0.9 mm 1 m/s 747 mmHg 95%
    04:00 +8°C° 0.9 mm 2 m/s 747 mmHg 95%
    05:00 +8°C° 0.2 mm 2 m/s 747 mmHg 95%
    06:00 +8°C° 0.2 mm 2 m/s 746 mmHg 94%
    07:00 +8°C° 0.2 mm 2 m/s 746 mmHg 93%
    08:00 +8°C° 0 mm 2 m/s 746 mmHg 87%
    09:00 +9°C° 0 mm 3 m/s 746 mmHg 82%
    10:00 +10°C° 0 mm 4 m/s 746 mmHg 76%
    11:00 +10°C° 0.1 mm 4 m/s 746 mmHg 72%
    12:00 +10°C° 0.1 mm 5 m/s 745 mmHg 68%
    13:00 +10°C° 0.1 mm 6 m/s 745 mmHg 64%
    14:00 +10°C° 0 mm 5 m/s 745 mmHg 63%
    15:00 +10°C° 0 mm 5 m/s 744 mmHg 62%
    16:00 +10°C° 0 mm 5 m/s 744 mmHg 61%
    17:00 +9°C° 0 mm 5 m/s 743 mmHg 64%
    18:00 +8°C° 0 mm 5 m/s 743 mmHg 67%
    19:00 +7°C° 0 mm 4 m/s 743 mmHg 70%
    20:00 +7°C° 0 mm 5 m/s 742 mmHg 70%
    21:00 +7°C° 0 mm 5 m/s 742 mmHg 70%
    22:00 +7°C° 0 mm 5 m/s 741 mmHg 70%
    23:00 +6°C° 0.3 mm 5 m/s 740 mmHg 73%

    Après-demain, 28 Septembre, Vendredi

    Heure Température Précipitation Vent Pression Humidité
    00:00 +5°C° 0.3 mm 6 m/s 739 mmHg 76%
    01:00 +5°C° 0.3 mm 6 m/s 738 mmHg 79%
    02:00 +4°C° 0.7 mm 6 m/s 738 mmHg 82%
    03:00 +4°C° 0.7 mm 6 m/s 737 mmHg 84%
    04:00 +4°C° 0.7 mm 6 m/s 737 mmHg 87%
    05:00 +4°C° 0.6 mm 6 m/s 737 mmHg 88%
    06:00 +4°C° 0.6 mm 6 m/s 737 mmHg 88%
    07:00 +4°C° 0.6 mm 6 m/s 737 mmHg 89%
    08:00 +4°C° 0.2 mm 6 m/s 738 mmHg 87%
    09:00 +5°C° 0.2 mm 6 m/s 738 mmHg 85%
    10:00 +5°C° 0.2 mm 6 m/s 739 mmHg 82%
    11:00 +5°C° 0.1 mm 6 m/s 739 mmHg 81%
    12:00 +5°C° 0.1 mm 6 m/s 740 mmHg 80%
    13:00 +5°C° 0.1 mm 6 m/s 740 mmHg 79%
    14:00 +5°C° 0.1 mm 6 m/s 741 mmHg 79%
    15:00 +6°C° 0.1 mm 5 m/s 741 mmHg 79%
    16:00 +6°C° 0.1 mm 5 m/s 742 mmHg 79%
    17:00 +6°C° 0 mm 5 m/s 742 mmHg 80%
    18:00 +6°C° 0 mm 4 m/s 742 mmHg 81%
    19:00 +6°C° 0 mm 4 m/s 742 mmHg 82%
    20:00 +6°C° 0.1 mm 4 m/s 742 mmHg 82%
    21:00 +6°C° 0.1 mm 5 m/s 741 mmHg 82%
    22:00 +6°C° 0.1 mm 5 m/s 741 mmHg 82%
    23:00 +5°C° 1.3 mm 6 m/s 740 mmHg 83%

    29 Septembre, Samedi

    Heure Température Précipitation Vent Pression Humidité
    00:00 +5°C° 1.3 mm 6 m/s 740 mmHg 84%
    01:00 +6°C° 1.3 mm 7 m/s 739 mmHg 84%
    02:00 +6°C° 1.1 mm 7 m/s 738 mmHg 84%
    03:00 +7°C° 1.1 mm 8 m/s 738 mmHg 84%
    04:00 +7°C° 1.1 mm 8 m/s 738 mmHg 83%
    05:00 +7°C° 0.8 mm 9 m/s 738 mmHg 84%
    06:00 +8°C° 0.8 mm 9 m/s 738 mmHg 85%
    07:00 +8°C° 0.8 mm 9 m/s 738 mmHg 85%
    08:00 +8°C° 0.4 mm 9 m/s 738 mmHg 85%
    09:00 +9°C° 0.4 mm 8 m/s 739 mmHg 84%
    10:00 +10°C° 0.4 mm 8 m/s 739 mmHg 84%
    11:00 +10°C° 0.1 mm 7 m/s 740 mmHg 81%
    12:00 +10°C° 0.1 mm 7 m/s 741 mmHg 78%
    13:00 +10°C° 0.1 mm 7 m/s 742 mmHg 75%
    14:00 +9°C° 0.1 mm 7 m/s 743 mmHg 74%
    15:00 +9°C° 0.1 mm 6 m/s 743 mmHg 74%
    16:00 +8°C° 0.1 mm 6 m/s 744 mmHg 73%
    17:00 +7°C° 0 mm 5 m/s 745 mmHg 76%
    18:00 +6°C° 0 mm 4 m/s 745 mmHg 78%
    19:00 +5°C° 0 mm 3 m/s 746 mmHg 81%
    20:00 +5°C° 0 mm 3 m/s 746 mmHg 82%
    21:00 +5°C° 0 mm 3 m/s 747 mmHg 84%
    22:00 +4°C° 0 mm 3 m/s 747 mmHg 86%
    23:00 +4°C° 0 mm 3 m/s 747 mmHg 86%

    30 Septembre, Dimanche

    Heure Température Précipitation Vent Pression Humidité
    00:00 +4°C° 0 mm 3 m/s 747 mmHg 87%
    01:00 +3°C° 0 mm 3 m/s 748 mmHg 87%
    02:00 +4°C° 0 mm 2 m/s 748 mmHg 87%
    03:00 +4°C° 0 mm 2 m/s 748 mmHg 87%
    04:00 +4°C° 0 mm 2 m/s 748 mmHg 86%
    05:00 +4°C° 0 mm 2 m/s 748 mmHg 85%
    06:00 +4°C° 0 mm 2 m/s 748 mmHg 84%
    07:00 +4°C° 0 mm 2 m/s 748 mmHg 83%
    08:00 +5°C° 0.1 mm 2 m/s 748 mmHg 80%
    09:00 +5°C° 0.1 mm 2 m/s 748 mmHg 77%
    10:00 +6°C° 0.1 mm 2 m/s 748 mmHg 73%
    11:00 +7°C° 0.1 mm 3 m/s 748 mmHg 71%
    12:00 +7°C° 0.1 mm 3 m/s 748 mmHg 70%
    13:00 +7°C° 0.1 mm 3 m/s 748 mmHg 68%
    14:00 +7°C° 0.1 mm 3 m/s 748 mmHg 68%
    15:00 +7°C° 0.1 mm 2 m/s 748 mmHg 68%
    16:00 +7°C° 0.1 mm 2 m/s 748 mmHg 69%
    17:00 +6°C° 0.1 mm 2 m/s 748 mmHg 73%
    18:00 +5°C° 0.1 mm 2 m/s 748 mmHg 78%
    19:00 +6°C° 0.1 mm 1 m/s 748 mmHg 83%
    20:00 +5°C° 0 mm 1 m/s 748 mmHg 84%
    21:00 +4°C° 0 mm 2 m/s 748 mmHg 85%
    22:00 +4°C° 0 mm 2 m/s 748 mmHg 86%
    23:00 +4°C° 0.1 mm 2 m/s 748 mmHg 87%

    1 Octobre, Lundi

    Heure Température Précipitation Vent Pression Humidité
    00:00 +4°C° 0.1 mm 2 m/s 748 mmHg 89%
    01:00 +4°C° 0.1 mm 2 m/s 748 mmHg 90%
    02:00 +3°C° 0.1 mm 2 m/s 748 mmHg 91%
    03:00 +3°C° 0.1 mm 2 m/s 748 mmHg 92%
    04:00 +3°C° 0.1 mm 2 m/s 748 mmHg 93%
    05:00 +2°C° 0.1 mm 3 m/s 749 mmHg 93%
    06:00 +2°C° 0.1 mm 3 m/s 749 mmHg 93%
    07:00 +2°C° 0.1 mm 3 m/s 749 mmHg 93%
    08:00 +3°C° 0 mm 3 m/s 749 mmHg 90%
    09:00 +3°C° 0 mm 4 m/s 749 mmHg 88%
    10:00 +3°C° 0 mm 4 m/s 750 mmHg 85%
    11:00 +4°C° 0 mm 4 m/s 750 mmHg 80%
    12:00 +4°C° 0 mm 4 m/s 750 mmHg 75%
    13:00 +5°C° 0 mm 3 m/s 750 mmHg 71%
    14:00 +5°C° 0 mm 3 m/s 751 mmHg 68%
    15:00 +5°C° 0 mm 3 m/s 751 mmHg 65%
    16:00 +5°C° 0 mm 3 m/s 751 mmHg 63%
    17:00 +4°C° 0 mm 3 m/s 751 mmHg 68%
    18:00 +3°C° 0 mm 3 m/s 751 mmHg 73%
    19:00 +3°C° 0 mm 2 m/s 751 mmHg 78%
    20:00 +3°C° 0 mm 3 m/s 751 mmHg 77%
    21:00 +3°C° 0 mm 3 m/s 751 mmHg 76%
    22:00 +4°C° 0 mm 4 m/s 751 mmHg 75%
    23:00 +4°C° 0 mm 3 m/s 751 mmHg 77%
    Voir plus